Regional Weather Roundup
Issued by NWS

Home | Current Version | Previous Version | Graphics & Text | Print | Product List | Glossary On
Versions: 1 2 3 4 5 6 7 8 9 10 11 12 13 14 15 16 17 18 19 20 21 22 23 24 25 26 27 28 29 30 31 32 33 34 35 36 37 38 39 40 41 42 43 44 45 46 47 48 49 50
000
ASUS43 KIND 022359
RWRIN

WEATHER ROUNDUP FOR INDIANA
NATIONAL WEATHER SERVICE INDIANAPOLIS IN
800 PM EDT TUE SEP 02 2014

NOTE: "FAIR" INDICATES FEW OR NO CLOUDS BELOW 12,000 FEET WITH NO
SIGNIFICANT WEATHER AND/OR OBSTRUCTIONS TO VISIBILITY.

* - STATION DOES NOT REPORT WEATHER SUCH AS PRECIPITATION OR FOG.

+ - STATION NOT QUALITY CONTROLLED BY THE NATIONAL WEATHER SERVICE.
    USE DATA WITH CAUTION...ESPECIALLY DEWPOINT AND RELATIVE
    HUMIDITY OBSERVATIONS.

INZ001>003-010>013-019-020-030100-
NORTHWEST INDIANA

CITY           SKY/WX    TMP DP  RH WIND       PRES   REMARKS
GARY /AIRPORT/ PTCLDY    77  61  57 E5        29.90S
KNOX *+        PTCLDY    75  64  67 CALM      29.90R
MONTICELLO +   MOCLDY    75  69  80 CALM      29.91R
VALPARAISO     PTCLDY    76  65  68 CALM      29.91R
6HR MIN TEMP:  75; 6HR MAX TEMP:  81;


$$

LMZ046-743>745-030100-
SOUTHERN LAKE MICHIGAN

STATION/POSITION TIME  TEMP WIND        PRES
                       AIR  DIR/SP/G
                 (UTC) (F)  (DEG/KT/KT) (MB)
MICHIGAN CITY    2300   73   30/  6/  7   N/A

$$

INZ004-005-014>016-021>024-030100-
NORTH CENTRAL INDIANA

CITY           SKY/WX    TMP DP  RH WIND       PRES   REMARKS
GOSHEN         PTCLDY    73  62  68 N5        29.91S
6HR MIN TEMP:  73; 6HR MAX TEMP:  80; 6HR PCP:  0.09;

SOUTH BEND     CLEAR     74  61  63 N6        29.91S
6HR MIN TEMP:  74; 6HR MAX TEMP:  82;


$$

INZ006>009-017-018-025>027-030100-
NORTHEAST INDIANA

CITY           SKY/WX    TMP DP  RH WIND       PRES   REMARKS
ANGOLA *+      CLEAR     75  63  64 N3        29.91S
FORT WAYNE     MOCLDY    72  69  90 S5        29.92S
6HR MIN TEMP:  72; 6HR MAX TEMP:  78; 6HR PCP: TRACE;


$$

INZ028-029-035-036-043>045-051>053-030100-
WEST CENTRAL INDIANA

CITY           SKY/WX    TMP DP  RH WIND       PRES   REMARKS
GREENCASTLE +  PTCLDY    70  70 100 CALM      29.95R
LAFAYETTE      MOCLDY    74  69  85 SW3       29.92R
6HR MIN TEMP:  74; 6HR MAX TEMP:  78; 6HR PCP: TRACE;

TERRE HAUTE    PTCLDY    76  68  76 CALM      29.94R
6HR MIN TEMP:  73; 6HR MAX TEMP:  80;


$$

INZ030>032-037>040-046>048-054>057-064-065-030100-
CENTRAL INDIANA

CITY           SKY/WX    TMP DP  RH WIND       PRES   REMARKS
FRANKFORT +    MOCLDY    73  73 100 SW3       29.94S
INDIANAPOLIS   MOCLDY    74  66  76 W5        29.94R
6HR MIN TEMP:  74; 6HR MAX TEMP:  79;

-EAGLE CREEK   PTCLDY    75  66  73 CALM      29.93R
6HR MIN TEMP:  73; 6HR MAX TEMP:  79;

KOKOMO *+      MOCLDY    73  66  78 W5        29.92R
MT COMFORT *+  PTCLDY    73  72  94 W3        29.94R
SHELBYVILLE    CLEAR     74  67  78 W5        29.94R
6HR MIN TEMP:  74; 6HR MAX TEMP:  80;


$$

INZ033-034-041-042-049-050-058-059-030100-
EAST CENTRAL INDIANA

CITY           SKY/WX    TMP DP  RH WIND       PRES   REMARKS
MUNCIE         PTCLDY    73  66  78 SW3       29.93S
6HR MIN TEMP:  72; 6HR MAX TEMP:  77; 6HR PCP: TRACE;


$$

INZ060-061-067>069-081>083-085>088-030100-
SOUTHWEST INDIANA

CITY           SKY/WX    TMP DP  RH WIND       PRES   REMARKS
EVANSVILLE     CLEAR     79  71  76 N3        29.95R
6HR MIN TEMP:  79; 6HR MAX TEMP:  85;


$$

INZ062-063-066-070>080-084-089>092-030100-
SOUTH CENTRAL AND SOUTHEAST INDIANA

CITY           SKY/WX    TMP DP  RH WIND       PRES   REMARKS
BLOOMINGTON    CLEAR     73  69  87 SW3       29.95R
6HR MIN TEMP:  73; 6HR MAX TEMP:  77;


$$




USA.gov is the U.S. government's official web portal to all federal, state and local government web resources and services.